Change the Weather History Date:

Saturday, August 9, 2014

  Actual Average Record
Temperature  
Mean Temperature 66 °F 66 °F  
Max Temperature 85 °F 84 °F 98 °F (2000)
Min Temperature 46 °F 48 °F 35 °F (1914)
Degree Days  
Heating Degree Days 0 2  
Month to date heating degree days 0 18  
Since 1 June heating degree days 267 311  
Since 1 July heating degree days 14 95  
Cooling Degree Days 1 3  
Month to date cooling degree days 52 27  
Year to date cooling degree days 182 110  
Since 1 June cooling degree days 182 107  
Growing Degree Days 15 (Base 50)    
Moisture  
Dew Point 45 °F    
Average Humidity 54    
Maximum Humidity 86    
Minimum Humidity 22    
Precipitation  
Precipitation 0.00 in 0.02 in 0.79 in (1953)
Month to date precipitation T 0.25  
Year to date precipitation 12.88 10.87  
Snow  
Snow 0.00 in - - ()
Month to date snowfall 0.0  
Year to date snowfall 38.2  
Since 1 July snowfall 0.0  
Snow Depth 0.00 in    
Sea Level Pressure  
Sea Level Pressure 30.07 in    
Wind  
Wind Speed 3 mph (SW)    
Max Wind Speed 12 mph    
Max Gust Speed 16 mph    
Visibility 10 miles    
Events      
T = Trace of Precipitation, MM = Missing Value Source: NWS Daily Summary

Daily Weather History Graph

Daily Weather History Graph

Search for Another Location

Airport or City:

Trip Planner

Search our weather history database for the weather conditions in past years. The results will help you decide how hot, cold, wet, or windy it might be!

Date:

Astronomy

Aug. 09, 2014 Rise Set
Actual Time 6:23 AM MDT 9:01 PM MDT
Civil Twilight 5:47 AM MDT 9:36 PM MDT
Nautical Twilight 5:02 AM MDT 10:20 PM MDT
Astronomical Twilight 4:09 AM MDT 11:13 PM MDT
Moon 8:03 PM MDT (8/9) 5:08 AM MDT (8/9)
Length of Visible Light 15h 48m
Length of Day
14h 38m
Waxing Gibbous, 98% of the Moon is Illuminated
Aug 9
Waxing Gibbous
Aug 10
Full
Aug 17
Last Quarter
Aug 25
New
Sep 2
First Quarter

Hourly Weather History & Observations

Time (MDT) Temp. Dew Point Humidity Pressure Visibility Wind Dir Wind Speed Gust Speed Precip Events Conditions
12:55 AM 54.0 °F 45.0 °F 72% 29.98 in 10.0 mi Calm Calm - N/A   Clear
1:55 AM 54.0 °F 45.0 °F 72% 29.98 in 10.0 mi WNW 4.6 mph - N/A   Clear
2:55 AM 52.0 °F 46.0 °F 80% 30.00 in 10.0 mi NNW 3.5 mph - N/A   Clear
3:55 AM 50.0 °F 45.0 °F 83% 30.02 in 10.0 mi Calm Calm - N/A   Clear
4:55 AM 48.0 °F 43.0 °F 83% 30.04 in 10.0 mi Calm Calm - N/A   Clear
5:55 AM 46.9 °F 43.0 °F 86% 30.06 in 10.0 mi WNW 3.5 mph - N/A   Clear
6:55 AM 48.0 °F 44.1 °F 86% 30.09 in 10.0 mi Calm Calm - N/A   Clear
7:55 AM 55.9 °F 46.9 °F 72% 30.10 in 10.0 mi Calm Calm - N/A   Clear
8:55 AM 63.0 °F 48.0 °F 58% 30.10 in 10.0 mi Calm Calm - N/A   Clear
9:55 AM 69.1 °F 48.0 °F 47% 30.10 in 10.0 mi NNE 9.2 mph - N/A   Clear
10:55 AM 72.0 °F 48.9 °F 44% 30.11 in 10.0 mi Variable 5.8 mph - N/A   Clear
11:55 AM 75.0 °F 48.0 °F 38% 30.12 in 10.0 mi Variable 3.5 mph - N/A   Clear
12:55 PM 78.1 °F 46.0 °F 32% 30.12 in 10.0 mi SW 4.6 mph - N/A   Clear
1:55 PM 80.1 °F 42.1 °F 26% 30.10 in 10.0 mi Variable 4.6 mph - N/A   Clear
2:55 PM 82.9 °F 42.1 °F 24% 30.09 in 10.0 mi Calm Calm - N/A   Clear
3:55 PM 82.0 °F 39.9 °F 22% 30.08 in 10.0 mi ESE 3.5 mph - N/A   Clear
4:55 PM 84.0 °F 42.1 °F 23% 30.06 in 10.0 mi South 8.1 mph - N/A   Clear
5:55 PM 82.0 °F 42.1 °F 24% 30.06 in 10.0 mi SSW 5.8 mph - N/A   Clear
6:55 PM 82.0 °F 42.1 °F 24% 30.06 in 10.0 mi SSE 5.8 mph - N/A   Clear
7:55 PM 80.1 °F 44.1 °F 28% 30.05 in 10.0 mi SE 3.5 mph - N/A   Clear
8:55 PM 69.1 °F 51.1 °F 53% 30.06 in 10.0 mi Calm Calm - N/A   Clear
9:55 PM 63.0 °F 48.0 °F 58% 30.07 in 10.0 mi North 3.5 mph - N/A   Clear
10:55 PM 57.0 °F 48.0 °F 72% 30.09 in 10.0 mi Calm Calm - N/A   Clear
11:55 PM 55.0 °F 46.9 °F 74% 30.09 in 10.0 mi Calm Calm - N/A   Clear